This is the latest recevied weather packets stored in our database for station/object W5LND-10. If no packets are shown the sender has not sent any weather packets the latest 10 day(s).
| Time | Temp. | Humidity | Pressure | Rain* | Wind** | Luminosity | Snow |
|---|---|---|---|---|---|---|---|
| 1777904773 | 18.89° C | 62% | 1007 hPa | 0 mm | - | 492 W/m² | - |
| 1777904473 | 18.89° C | 62% | 1007.3 hPa | 0 mm | - | 468 W/m² | - |
| 1777904173 | 18.89° C | 62% | 1007.6 hPa | 0 mm | - | 401 W/m² | - |
| 1777903873 | 18.89° C | 63% | 1007.5 hPa | 0 mm | - | 446 W/m² | - |
| 1777903573 | 18.89° C | 63% | 1007.5 hPa | 0 mm | - | 341 W/m² | - |
| 1777903273 | 18.33° C | 63% | 1007.6 hPa | 0 mm | - | 441 W/m² | - |
| 1777902973 | 18.33° C | 64% | 1007.4 hPa | 0 mm | - | 466 W/m² | - |
| 1777902673 | 18.33° C | 64% | 1007.3 hPa | 0 mm | - | 473 W/m² | - |
| 1777902373 | 17.78° C | 64% | 1007.3 hPa | 0 mm | - | 279 W/m² | - |
| 1777902073 | 17.78° C | 64% | 1007.1 hPa | 0 mm | - | 230 W/m² | - |
| 1777901773 | 17.78° C | 65% | 1007.2 hPa | 0 mm | - | 309 W/m² | - |
| 1777901473 | 17.78° C | 65% | 1007.1 hPa | 0 mm | - | 338 W/m² | - |
| 1777901173 | 17.78° C | 65% | 1007.1 hPa | 0 mm | - | 172 W/m² | - |
| 1777900873 | 17.22° C | 65% | 1006.9 hPa | 0 mm | - | 213 W/m² | - |
| 1777900573 | 17.22° C | 65% | 1006.9 hPa | 0 mm | - | 156 W/m² | - |
| 1777900273 | 17.22° C | 65% | 1006.9 hPa | 0 mm | - | 86 W/m² | - |
| 1777899973 | 17.22° C | 65% | 1007.1 hPa | 0 mm | - | 276 W/m² | - |
| 1777899673 | 17.22° C | 65% | 1007.1 hPa | 0 mm | - | 97 W/m² | - |
| 1777899373 | 17.22° C | 65% | 1007.1 hPa | 0 mm | - | 183 W/m² | - |
| 1777899073 | 17.22° C | 65% | 1007 hPa | 0 mm | - | 165 W/m² | - |
| 1777898773 | 17.22° C | 64% | 1006.8 hPa | 0 mm | - | 137 W/m² | - |
| 1777898473 | 17.22° C | 64% | 1006.9 hPa | 0 mm | - | 98 W/m² | - |
| 1777898173 | 17.22° C | 64% | 1006.8 hPa | 0 mm | - | 84 W/m² | - |
| 1777897873 | 17.22° C | 64% | 1006.8 hPa | 0 mm | - | 72 W/m² | - |
| 1777897573 | 16.67° C | 64% | 1006.7 hPa | 0 mm | - | 49 W/m² | - |
* Rain latest hour (hover to see other rain measurements)
** Current wind speed in m/s (hover to see current wind gust speed)